Tracking 19476 objects as of 17-Jan-2019
HD Live streaming from Space Station
objects crossing your sky now

BIRD GG

Track BIRD GG now!
10-day predictions
BIRD GG is classified as:


NORAD ID: 42821
Int'l Code: 1998-067MV
Perigee: 337.5 km
Apogee: 338.0 km
Inclination: 51.6 °
Period: 91.1 minutes
Semi major axis: 6708 km
RCS: Unknown
Launch date: November 20, 1998
Source: (GHA)
Launch site: TYURATAM MISSILE AND SPACE COMPLEX (TTMTR)

Uplink (MHz):
Downlink (MHz): 437.375
Beacon (MHz): 437.372
Mode: 1k2AFSK 9k6GMSK CW
Call sign: JG6YJP
Status: Inactive

aabbcc
Your satellite tracking list
Your tracking list is empty




NASA's NSSDC Master Catalog

Two Line Element Set (TLE):
1 42821U 98067MV  19016.91658660 +.00038484 +00000-0 +20579-3 0  9998
2 42821 051.6273 346.1214 0000383 071.9422 288.1621 15.79949037087482
Source of the keplerian elements: AMSAT